This is the latest recevied weather packets stored in our database for station/object W7PLC. If no packets are shown the sender has not sent any weather packets the latest 10 day(s).
| Time | Temp. | Humidity | Pressure | Rain* | Wind** | Luminosity | Snow |
|---|---|---|---|---|---|---|---|
| 1777407118 | 12.22° C | 75% | 1022 hPa | 0 mm | - | 60 W/m² | - |
| 1777405298 | 12.22° C | 74% | 1021.7 hPa | 0 mm | - | 84 W/m² | - |
| 1777404997 | 12.22° C | 74% | 1021.9 hPa | 0 mm | - | 127 W/m² | - |
| 1777404693 | 11.67° C | 75% | 1021.8 hPa | 0 mm | - | 128 W/m² | - |
| 1777404388 | 11.67° C | 75% | 1021.6 hPa | 0 mm | - | 106 W/m² | - |
| 1777404085 | 11.67° C | 75% | 1021.7 hPa | 0 mm | - | 91 W/m² | - |
| 1777403781 | 11.11° C | 76% | 1021.7 hPa | 0 mm | - | 72 W/m² | - |
| 1777403479 | 11.11° C | 76% | 1021.5 hPa | 0 mm | - | 65 W/m² | - |
| 1777403174 | 11.11° C | 76% | 1021.7 hPa | 0 mm | - | 51 W/m² | - |
| 1777402870 | 11.11° C | 76% | 1021.6 hPa | 0 mm | - | 44 W/m² | - |
| 1777400138 | 12.22° C | 73% | 1021.3 hPa | 0 mm | - | 96 W/m² | - |
| 1777399836 | 12.22° C | 72% | 1021.4 hPa | 0 mm | - | 110 W/m² | - |
| 1777399533 | 12.22° C | 73% | 1021.4 hPa | 0 mm | - | 125 W/m² | - |
| 1777399230 | 12.22° C | 73% | 1021.3 hPa | 0 mm | - | 86 W/m² | - |
| 1777398321 | 12.22° C | 74% | 1021.5 hPa | 0 mm | - | 86 W/m² | - |
| 1777397410 | 11.67° C | 76% | 1021.2 hPa | 0 mm | - | 57 W/m² | - |
| 1777397107 | 11.67° C | 78% | 1021.3 hPa | 0 mm | - | 64 W/m² | - |
| 1777396197 | 11.67° C | 78% | 1020.9 hPa | 0 mm | - | 75 W/m² | - |
| 1777395893 | 11.67° C | 77% | 1021.2 hPa | 0 mm | - | 75 W/m² | - |
| 1777394679 | 11.67° C | 78% | 1021.1 hPa | 0 mm | - | 123 W/m² | - |
| 1777394375 | 11.67° C | 78% | 1021.1 hPa | 0 mm | - | 124 W/m² | - |
| 1777394072 | 11.67° C | 81% | 1021.1 hPa | 0 mm | - | 117 W/m² | - |
| 1777393466 | 11.67° C | 84% | 1021.1 hPa | 0 mm | - | 120 W/m² | - |
| 1777392860 | 10.56° C | 87% | 1021.1 hPa | 0 mm | - | 113 W/m² | - |
| 1777392555 | 10.56° C | 87% | 1021.1 hPa | 0 mm | - | 75 W/m² | - |
* Rain latest hour (hover to see other rain measurements)
** Current wind speed in m/s (hover to see current wind gust speed)